| time (UTC) | temp C | wind direction | speed KPH | gust KPH | rain 1hr cm | rain 24hr cm | rain mn cm | humidity % | barometer mb |
| 20260505101743 | 13 | 22 | 1.6 | 1.6 | 0.00 | 0.00 | 0.00 | 89 | 1005.3 |
| 20260505101459 | 13 | 22 | 0.0 | 1.6 | 0.00 | 0.00 | 0.00 | 88 | 1005.5 |
| 20260505101001 | 13 | 22 | 0.0 | 3.2 | 0.00 | 0.00 | 0.00 | 88 | 1005.7 |
| 20260505100239 | 13 | 22 | 0.0 | 3.2 | 0.00 | 0.00 | 0.00 | 88 | 1005.8 |
| 20260505095739 | 13 | 22 | 0.0 | 4.8 | 0.00 | 0.00 | 0.00 | 87 | 1006.1 |
| 20260505095238 | 13 | 348 | 1.6 | 9.7 | 0.00 | 0.00 | 0.00 | 87 | 1006.3 |
| 20260505094734 | 13 | 303 | 4.8 | 9.7 | 0.00 | 0.00 | 0.00 | 86 | 1006.2 |
| 20260505094718 | 14 | 326 | 4.8 | 16.1 | 0.00 | 0.00 | 0.00 | 86 | 1006.3 |
| 20260505093734 | 14 | 346 | 4.8 | 17.7 | 0.00 | 0.00 | 0.00 | 85 | 1006.3 |
| 20260505093233 | 15 | 316 | 4.8 | 17.7 | 0.00 | 0.00 | 0.00 | 84 | 1006.0 |
| 20260505092733 | 15 | 32 | 4.8 | 16.1 | 0.00 | 0.00 | 0.00 | 82 | 1006.0 |
| 20260505092233 | 15 | 18 | 4.8 | 16.1 | 0.00 | 0.00 | 0.00 | 81 | 1006.0 |
| 20260505091734 | 15 | 332 | 3.2 | 11.3 | 0.00 | 0.00 | 0.00 | 79 | 1005.9 |
| 20260505091232 | 16 | 12 | 4.8 | 11.3 | 0.00 | 0.00 | 0.00 | 78 | 1005.8 |
| 20260505090732 | 16 | 32 | 6.4 | 14.5 | 0.00 | 0.00 | 0.00 | 77 | 1005.6 |
| 20260505090233 | 16 | 323 | 4.8 | 14.5 | 0.00 | 0.00 | 0.00 | 76 | 1005.4 |
| 20260505085733 | 16 | 335 | 1.6 | 8.0 | 0.00 | 0.00 | 0.00 | 75 | 1005.0 |
| 20260505085233 | 16 | 50 | 4.8 | 20.9 | 0.00 | 0.00 | 0.00 | 74 | 1004.7 |
| 20260505084732 | 16 | 0 | 4.8 | 20.9 | 0.00 | 0.00 | 0.00 | 73 | 1004.9 |
| 20260505084232 | 17 | 343 | 1.6 | 6.4 | 0.00 | 0.00 | 0.00 | 68 | 1004.9 |
| 20260505083734 | 17 | 242 | 1.6 | 1.6 | 0.00 | 0.00 | 0.00 | 68 | 1004.4 |
| 20260505083234 | 17 | 242 | 0.0 | 1.6 | 0.00 | 0.00 | 0.00 | 69 | 1004.3 |
| 20260505082734 | 16 | 242 | 0.0 | 1.6 | 0.00 | 0.00 | 0.00 | 69 | 1004.2 |
| 20260505082234 | 16 | 242 | 0.0 | 0.0 | 0.00 | 0.00 | 0.00 | 69 | 1004.2 |
| 20260505081729 | 16 | 242 | 0.0 | 1.6 | 0.00 | 0.00 | 0.00 | 69 | 1003.9 |
| 20260505081230 | 16 | 242 | 0.0 | 1.6 | 0.00 | 0.00 | 0.00 | 69 | 1003.8 |
| 20260505080730 | 17 | 242 | 0.0 | 1.6 | 0.00 | 0.00 | 0.00 | 69 | 1003.6 |
| 20260505080229 | 17 | 242 | 0.0 | 1.6 | 0.00 | 0.00 | 0.00 | 69 | 1003.4 |
| 20260505075729 | 17 | 242 | 0.0 | 1.6 | 0.00 | 0.00 | 0.00 | 69 | 1003.4 |
| 20260505075228 | 17 | 242 | 0.0 | 1.6 | 0.00 | 0.00 | 0.00 | 68 | 1003.6 |
| 20260505074729 | 17 | 242 | 0.0 | 1.6 | 0.00 | 0.00 | 0.00 | 67 | 1003.7 |
| 20260505074230 | 17 | 242 | 1.6 | 3.2 | 0.00 | 0.00 | 0.00 | 67 | 1003.7 |
| 20260505073730 | 17 | 242 | 1.6 | 3.2 | 0.00 | 0.00 | 0.00 | 67 | 1003.7 |
| 20260505073450 | 17 | 242 | 1.6 | 3.2 | 0.00 | 0.00 | 0.00 | 67 | 1003.7 |
| 20260505072728 | 17 | 242 | 1.6 | 3.2 | 0.00 | 0.00 | 0.00 | 67 | 1003.7 |
| 20260505072229 | 17 | 242 | 1.6 | 1.6 | 0.00 | 0.00 | 0.00 | 67 | 1003.6 |
| 20260505071729 | 17 | 242 | 1.6 | 3.2 | 0.00 | 0.00 | 0.00 | 67 | 1003.5 |
| 20260505071230 | 17 | 242 | 0.0 | 3.2 | 0.00 | 0.00 | 0.00 | 67 | 1003.4 |
| 20260505070728 | 17 | 242 | 0.0 | 3.2 | 0.00 | 0.00 | 0.00 | 67 | 1003.4 |
| 20260505070443 | 17 | 242 | 0.0 | 3.2 | 0.00 | 0.00 | 0.00 | 67 | 1003.4 |
| 20260505065722 | 17 | 242 | 0.0 | 4.8 | 0.00 | 0.00 | 0.00 | 67 | 1003.4 |
| 20260505065224 | 18 | 242 | 1.6 | 11.3 | 0.00 | 0.00 | 0.00 | 66 | 1003.3 |
| 20260505064723 | 17 | 266 | 1.6 | 14.5 | 0.00 | 0.00 | 0.00 | 66 | 1003.4 |
| 20260505064222 | 17 | 235 | 3.2 | 14.5 | 0.00 | 0.00 | 0.00 | 66 | 1003.3 |
| 20260505063951 | 18 | 244 | 3.2 | 8.0 | 0.00 | 0.00 | 0.00 | 66 | 1003.1 |
| 20260505063708 | 18 | 230 | 3.2 | 6.4 | 0.00 | 0.00 | 0.00 | 66 | 1003.1 |
| 20260505062711 | 18 | 230 | 3.2 | 12.9 | 0.00 | 0.00 | 0.00 | 66 | 1003.0 |
| 20260505062203 | 18 | 230 | 4.8 | 12.9 | 0.00 | 0.00 | 0.00 | 65 | 1003.0 |
| 20260505061657 | 18 | 243 | 3.2 | 9.7 | 0.00 | 0.00 | 0.00 | 65 | 1003.0 |
| 20260505061151 | 18 | 252 | 3.2 | 9.7 | 0.00 | 0.00 | 0.00 | 65 | 1003.0 |
| 20260505060645 | 18 | 225 | 3.2 | 9.7 | 0.00 | 0.00 | 0.00 | 65 | 1003.1 |
| 20260505060146 | 18 | 247 | 3.2 | 12.9 | 0.00 | 0.00 | 0.00 | 65 | 1003.0 |
| 20260505055647 | 18 | 225 | 3.2 | 12.9 | 0.00 | 0.00 | 0.00 | 65 | 1003.0 |
| 20260505055404 | 18 | 244 | 3.2 | 24.1 | 0.00 | 0.00 | 0.00 | 65 | 1002.9 |
| 20260505054643 | 18 | 209 | 3.2 | 24.1 | 0.00 | 0.00 | 0.00 | 65 | 1002.7 |
| 20260505054144 | 18 | 234 | 3.2 | 8.0 | 0.00 | 0.00 | 0.00 | 66 | 1002.4 |
| 20260505053644 | 18 | 239 | 3.2 | 14.5 | 0.00 | 0.00 | 0.00 | 66 | 1002.4 |
| 20260505053142 | 18 | 245 | 3.2 | 14.5 | 0.00 | 0.00 | 0.00 | 66 | 1002.3 |
| 20260505052640 | 18 | 219 | 3.2 | 16.1 | 0.00 | 0.00 | 0.00 | 66 | 1002.3 |
| 20260505052140 | 18 | 262 | 3.2 | 16.1 | 0.00 | 0.00 | 0.00 | 66 | 1002.3 |
| 20260505051640 | 18 | 267 | 3.2 | 14.5 | 0.00 | 0.00 | 0.00 | 66 | 1002.2 |
| 20260505051136 | 18 | 227 | 3.2 | 12.9 | 0.00 | 0.00 | 0.00 | 66 | 1002.3 |
| 20260505050634 | 18 | 241 | 3.2 | 12.9 | 0.00 | 0.00 | 0.00 | 66 | 1002.2 |
| 20260505050137 | 18 | 239 | 4.8 | 14.5 | 0.00 | 0.00 | 0.00 | 66 | 1002.2 |
| 20260505041611 | 18 | 249 | 1.6 | 8.0 | 0.00 | 0.00 | 0.00 | 67 | 1002.9 |
| 20260505041104 | 18 | 264 | 1.6 | 8.0 | 0.00 | 0.00 | 0.00 | 66 | 1003.0 |
| 20260505040605 | 18 | 242 | 1.6 | 8.0 | 0.00 | 0.00 | 0.00 | 66 | 1002.9 |
| 20260505040039 | 18 | 232 | 3.2 | 6.4 | 0.00 | 0.00 | 0.00 | 66 | 1003.0 |
| 20260505035050 | 18 | 267 | 3.2 | 6.4 | 0.00 | 0.00 | 0.00 | 66 | 1003.0 |
| 20260505034545 | 18 | 244 | 3.2 | 17.7 | 0.00 | 0.00 | 0.00 | 66 | 1003.0 |
| 20260505034531 | 18 | 248 | 3.2 | 17.7 | 0.00 | 0.00 | 0.00 | 66 | 1003.0 |
| 20260505033532 | 19 | 202 | 3.2 | 11.3 | 0.00 | 0.00 | 0.00 | 65 | 1003.1 |
| 20260505033027 | 19 | 246 | 3.2 | 6.4 | 0.00 | 0.00 | 0.00 | 65 | 1003.1 |
| 20260505032746 | 18 | 203 | 1.6 | 11.3 | 0.00 | 0.00 | 0.00 | 65 | 1003.1 |
| 20260505032017 | 19 | 260 | 3.2 | 11.3 | 0.00 | 0.00 | 0.00 | 66 | 1003.1 |
| 20260505031509 | 19 | 249 | 3.2 | 11.3 | 0.00 | 0.00 | 0.00 | 65 | 1003.0 |
| 20260505031003 | 19 | 237 | 1.6 | 6.4 | 0.00 | 0.00 | 0.00 | 65 | 1003.0 |
| 20260505030456 | 19 | 260 | 1.6 | 11.3 | 0.00 | 0.00 | 0.00 | 65 | 1003.0 |
| 20260505025951 | 19 | 260 | 3.2 | 11.3 | 0.00 | 0.00 | 0.00 | 65 | 1003.0 |
| 20260505025444 | 19 | 253 | 1.6 | 8.0 | 0.00 | 0.00 | 0.00 | 65 | 1003.0 |
| 20260505024939 | 19 | 247 | 1.6 | 8.0 | 0.00 | 0.00 | 0.00 | 65 | 1002.9 |
| 20260505024433 | 18 | 247 | 1.6 | 6.4 | 0.00 | 0.00 | 0.00 | 65 | 1002.8 |
| 20260505023926 | 18 | 204 | 1.6 | 6.4 | 0.00 | 0.00 | 0.00 | 66 | 1002.8 |
| 20260505023642 | 18 | 268 | 1.6 | 3.2 | 0.00 | 0.00 | 0.00 | 65 | 1002.7 |
| 20260505022915 | 19 | 268 | 1.6 | 3.2 | 0.00 | 0.00 | 0.00 | 65 | 1002.6 |
| 20260505022409 | 19 | 268 | 1.6 | 3.2 | 0.00 | 0.00 | 0.00 | 65 | 1002.6 |
| 20260505022122 | 19 | 268 | 1.6 | 4.8 | 0.00 | 0.00 | 0.00 | 65 | 1002.4 |
| 20260505021630 | 19 | 268 | 1.6 | 4.8 | 0.00 | 0.00 | 0.00 | 64 | 1002.3 |
| 20260505020850 | 19 | 268 | 1.6 | 6.4 | 0.00 | 0.00 | 0.00 | 64 | 1002.2 |
| 20260505020346 | 19 | 249 | 1.6 | 6.4 | 0.00 | 0.00 | 0.00 | 64 | 1002.1 |
| 20260505015839 | 19 | 221 | 1.6 | 6.4 | 0.00 | 0.00 | 0.00 | 64 | 1002.0 |
| 20260505015333 | 19 | 258 | 1.6 | 9.7 | 0.00 | 0.00 | 0.00 | 63 | 1001.9 |
| 20260505015046 | 19 | 227 | 1.6 | 9.7 | 0.00 | 0.00 | 0.00 | 63 | 1001.8 |
| 20260505014320 | 20 | 253 | 1.6 | 4.8 | 0.00 | 0.00 | 0.00 | 63 | 1001.8 |
| 20260505013817 | 20 | 253 | 1.6 | 11.3 | 0.00 | 0.00 | 0.00 | 62 | 1001.7 |
| 20260505013308 | 20 | 253 | 1.6 | 11.3 | 0.00 | 0.00 | 0.00 | 62 | 1001.7 |
| 20260505013023 | 20 | 218 | 1.6 | 9.7 | 0.00 | 0.00 | 0.00 | 62 | 1001.7 |
| 20260505012257 | 20 | 5 | 1.6 | 9.7 | 0.00 | 0.00 | 0.00 | 61 | 1001.6 |
| 20260505011750 | 20 | 242 | 1.6 | 6.4 | 0.00 | 0.00 | 0.00 | 61 | 1001.7 |
| 20260505011245 | 20 | 244 | 3.2 | 9.7 | 0.00 | 0.00 | 0.00 | 61 | 1001.6 |
| 20260505010739 | 20 | 261 | 3.2 | 9.7 | 0.00 | 0.00 | 0.00 | 61 | 1001.6 |
| 20260505010232 | 20 | 255 | 3.2 | 11.3 | 0.00 | 0.00 | 0.00 | 60 | 1001.6 |
| 20260505005728 | 21 | 247 | 3.2 | 11.3 | 0.00 | 0.00 | 0.00 | 61 | 1001.6 |
| 20260505005222 | 21 | 218 | 3.2 | 8.0 | 0.00 | 0.00 | 0.00 | 61 | 1001.6 |
| 20260505004715 | 21 | 266 | 1.6 | 8.0 | 0.00 | 0.00 | 0.00 | 61 | 1001.6 |
| 20260505004433 | 21 | 218 | 1.6 | 12.9 | 0.00 | 0.00 | 0.00 | 61 | 1001.6 |
| 20260505003928 | 21 | 243 | 3.2 | 16.1 | 0.00 | 0.00 | 0.00 | 60 | 1001.6 |
| 20260505003157 | 21 | 268 | 3.2 | 16.1 | 0.00 | 0.00 | 0.00 | 60 | 1001.7 |
| 20260505002651 | 21 | 244 | 3.2 | 11.3 | 0.00 | 0.00 | 0.00 | 60 | 1001.6 |
| 20260505002623 | 21 | 118 | 3.2 | 6.4 | 0.00 | 0.00 | 0.00 | 59 | 1001.5 |
| 20260505002127 | 21 | 247 | 1.6 | 12.9 | 0.00 | 0.00 | 0.00 | 60 | 1001.6 |
| 20260505001354 | 21 | 229 | 3.2 | 19.3 | 0.00 | 0.00 | 0.00 | 58 | 1001.6 |
| 20260505000627 | 22 | 259 | 3.2 | 19.3 | 0.00 | 0.00 | 0.00 | 57 | 1001.7 |
| 20260505000121 | 22 | 262 | 3.2 | 9.7 | 0.00 | 0.00 | 0.00 | 56 | 1001.8 |
| 20260504235615 | 22 | 222 | 3.2 | 11.3 | 0.00 | 0.00 | 0.00 | 57 | 1001.7 |
| 20260504235335 | 22 | 246 | 3.2 | 11.3 | 0.00 | 0.00 | 0.00 | 56 | 1001.7 |
| 20260504234603 | 22 | 151 | 3.2 | 9.7 | 0.00 | 0.00 | 0.00 | 55 | 1001.8 |
| 20260504234057 | 22 | 256 | 3.2 | 8.0 | 0.00 | 0.00 | 0.00 | 55 | 1002.0 |
| 20260504233550 | 23 | 246 | 4.8 | 19.3 | 0.00 | 0.00 | 0.00 | 54 | 1002.1 |
| 20260504233045 | 23 | 261 | 4.8 | 19.3 | 0.00 | 0.00 | 0.00 | 53 | 1002.2 |
| 20260504232538 | 23 | 154 | 4.8 | 14.5 | 0.00 | 0.00 | 0.00 | 52 | 1002.1 |
| 20260504232033 | 23 | 90 | 6.4 | 14.5 | 0.00 | 0.00 | 0.00 | 52 | 1002.3 |
| 20260504231527 | 23 | 229 | 6.4 | 19.3 | 0.00 | 0.00 | 0.00 | 51 | 1002.3 |
| 20260504231022 | 23 | 233 | 6.4 | 19.3 | 0.00 | 0.00 | 0.00 | 51 | 1002.6 |
| 20260504230515 | 23 | 249 | 6.4 | 19.3 | 0.00 | 0.00 | 0.00 | 51 | 1002.6 |
| 20260504230008 | 23 | 145 | 8.0 | 20.9 | 0.00 | 0.00 | 0.00 | 50 | 1002.4 |
| 20260504225503 | 23 | 268 | 6.4 | 20.9 | 0.00 | 0.00 | 0.00 | 49 | 1002.3 |
| 20260504225220 | 24 | 240 | 4.8 | 19.3 | 0.00 | 0.00 | 0.00 | 50 | 1002.4 |
| 20260504224451 | 24 | 244 | 4.8 | 19.3 | 0.00 | 0.00 | 0.00 | 48 | 1002.6 |
| 20260504223944 | 24 | 193 | 4.8 | 19.3 | 0.00 | 0.00 | 0.00 | 48 | 1002.7 |
| 20260504223439 | 23 | 223 | 4.8 | 16.1 | 0.00 | 0.00 | 0.00 | 48 | 1002.6 |
| 20260504222939 | 23 | 256 | 4.8 | 16.1 | 0.00 | 0.00 | 0.00 | 53 | 1002.7 |
| 20260504222439 | 23 | 227 | 1.6 | 11.3 | 0.00 | 0.00 | 0.00 | 57 | 1002.9 |
| 20260504221939 | 23 | 327 | 1.6 | 6.4 | 0.00 | 0.00 | 0.00 | 58 | 1002.8 |
| 20260504221437 | 23 | 244 | 1.6 | 6.4 | 0.00 | 0.00 | 0.00 | 57 | 1002.8 |
| 20260504220936 | 23 | 251 | 1.6 | 6.4 | 0.00 | 0.00 | 0.00 | 59 | 1002.8 |
| 20260504220436 | 23 | 252 | 1.6 | 9.7 | 0.00 | 0.00 | 0.00 | 56 | 1002.8 |
| 20260504215933 | 23 | 247 | 1.6 | 11.3 | 0.00 | 0.00 | 0.00 | 57 | 1002.9 |
| 20260504215434 | 23 | 300 | 1.6 | 11.3 | 0.00 | 0.00 | 0.00 | 55 | 1002.8 |
| 20260504214934 | 23 | 240 | 1.6 | 11.3 | 0.00 | 0.00 | 0.00 | 56 | 1002.8 |
| 20260504214704 | 23 | 290 | 1.6 | 11.3 | 0.00 | 0.00 | 0.00 | 56 | 1002.8 |
| 20260504213934 | 23 | 232 | 1.6 | 4.8 | 0.00 | 0.00 | 0.00 | 53 | 1002.8 |
| 20260504213432 | 23 | 232 | 3.2 | 9.7 | 0.00 | 0.00 | 0.00 | 53 | 1002.9 |
| 20260504212930 | 23 | 232 | 3.2 | 9.7 | 0.00 | 0.00 | 0.00 | 52 | 1003.2 |
| 20260504212429 | 23 | 147 | 3.2 | 12.9 | 0.00 | 0.00 | 0.00 | 51 | 1003.4 |
| 20260504211931 | 24 | 216 | 3.2 | 12.9 | 0.00 | 0.00 | 0.00 | 52 | 1003.4 |
| 20260504211425 | 24 | 175 | 4.8 | 9.7 | 0.00 | 0.00 | 0.00 | 50 | 1003.5 |
| 20260504210927 | 25 | 214 | 3.2 | 9.7 | 0.00 | 0.00 | 0.00 | 50 | 1003.6 |
| 20260504210426 | 25 | 228 | 1.6 | 8.0 | 0.00 | 0.00 | 0.00 | 50 | 1003.6 |
| 20260504205925 | 25 | 226 | 1.6 | 8.0 | 0.00 | 0.00 | 0.00 | 52 | 1003.7 |
| 20260504205426 | 24 | 265 | 3.2 | 8.0 | 0.00 | 0.00 | 0.00 | 50 | 1003.8 |
| 20260504205136 | 24 | 225 | 3.2 | 12.9 | 0.00 | 0.00 | 0.00 | 51 | 1003.9 |
| 20260504205023 | 24 | 136 | 3.2 | 12.9 | 0.00 | 0.00 | 0.00 | 50 | 1003.9 |
| 20260504203925 | 24 | 237 | 3.2 | 12.9 | 0.00 | 0.00 | 0.00 | 51 | 1003.9 |
| 20260504203646 | 24 | 218 | 4.8 | 12.9 | 0.00 | 0.00 | 0.00 | 52 | 1003.9 |
| 20260504203146 | 24 | 225 | 6.4 | 19.3 | 0.00 | 0.00 | 0.00 | 51 | 1004.0 |
| 20260504202422 | 24 | 231 | 6.4 | 19.3 | 0.00 | 0.00 | 0.00 | 52 | 1004.0 |
| 20260504201923 | 24 | 234 | 4.8 | 19.3 | 0.00 | 0.00 | 0.00 | 52 | 1004.2 |
| 20260504201421 | 24 | 128 | 3.2 | 9.7 | 0.00 | 0.00 | 0.00 | 56 | 1004.4 |
| 20260504200922 | 23 | 210 | 4.8 | 12.9 | 0.00 | 0.00 | 0.00 | 56 | 1004.3 |
| 20260504200421 | 23 | 191 | 6.4 | 22.5 | 0.00 | 0.00 | 0.00 | 55 | 1004.3 |
| 20260504200412 | 23 | 189 | 4.8 | 22.5 | 0.00 | 0.00 | 0.00 | 55 | 1004.5 |
| 20260504195422 | 23 | 260 | 3.2 | 11.3 | 0.00 | 0.00 | 0.00 | 56 | 1004.5 |
| 20260504194922 | 23 | 209 | 4.8 | 11.3 | 0.00 | 0.00 | 0.00 | 56 | 1004.6 |
| 20260504194419 | 23 | 203 | 6.4 | 11.3 | 0.00 | 0.00 | 0.00 | 55 | 1004.5 |
| 20260504193915 | 24 | 204 | 4.8 | 11.3 | 0.00 | 0.00 | 0.00 | 54 | 1004.5 |
| 20260504193642 | 23 | 148 | 3.2 | 12.9 | 0.00 | 0.00 | 0.00 | 57 | 1004.6 |
| 20260504192916 | 23 | 249 | 3.2 | 12.9 | 0.00 | 0.00 | 0.00 | 57 | 1004.7 |
| 20260504192415 | 22 | 213 | 4.8 | 14.5 | 0.00 | 0.00 | 0.00 | 59 | 1004.8 |
| 20260504191916 | 22 | 196 | 4.8 | 14.5 | 0.00 | 0.00 | 0.00 | 60 | 1005.0 |
| 20260504191902 | 21 | 214 | 1.6 | 9.7 | 0.00 | 0.00 | 0.00 | 62 | 1005.0 |
| 20260504190915 | 21 | 244 | 1.6 | 4.8 | 0.00 | 0.00 | 0.00 | 65 | 1005.2 |
| 20260504190415 | 20 | 244 | 1.6 | 6.4 | 0.00 | 0.00 | 0.00 | 66 | 1005.3 |
| 20260504185915 | 20 | 83 | 1.6 | 6.4 | 0.00 | 0.00 | 0.00 | 64 | 1004.8 |
| 20260504185638 | 20 | 254 | 1.6 | 8.0 | 0.00 | 0.00 | 0.00 | 65 | 1005.5 |
| 20260504184904 | 20 | 226 | 3.2 | 8.0 | 0.00 | 0.00 | 0.00 | 65 | 1005.5 |
| 20260504184358 | 20 | 233 | 1.6 | 4.8 | 0.00 | 0.00 | 0.00 | 66 | 1005.5 |
| 20260504184113 | 20 | 233 | 1.6 | 9.7 | 0.00 | 0.00 | 0.00 | 65 | 1005.6 |
| 20260504183347 | 20 | 233 | 3.2 | 11.3 | 0.00 | 0.00 | 0.00 | 64 | 1005.6 |
| 20260504182840 | 20 | 244 | 3.2 | 11.3 | 0.00 | 0.00 | 0.00 | 64 | 1005.8 |
| 20260504182334 | 20 | 240 | 3.2 | 11.3 | 0.00 | 0.00 | 0.00 | 63 | 1005.5 |
| 20260504181828 | 20 | 226 | 3.2 | 12.9 | 0.00 | 0.00 | 0.00 | 64 | 1005.5 |
| 20260504181322 | 20 | 298 | 4.8 | 12.9 | 0.00 | 0.00 | 0.00 | 63 | 1005.4 |
| 20260504180817 | 21 | 208 | 3.2 | 11.3 | 0.00 | 0.00 | 0.00 | 62 | 1005.6 |
| 20260504180310 | 21 | 239 | 4.8 | 19.3 | 0.00 | 0.00 | 0.00 | 62 | 1005.4 |
| 20260504175804 | 21 | 230 | 6.4 | 29.0 | 0.00 | 0.00 | 0.00 | 61 | 1005.2 |
| 20260504175258 | 21 | 219 | 8.0 | 29.0 | 0.00 | 0.00 | 0.00 | 60 | 1005.1 |
| 20260504174752 | 21 | 230 | 8.0 | 29.0 | 0.00 | 0.00 | 0.00 | 59 | 1005.0 |
| 20260504174246 | 21 | 218 | 6.4 | 29.0 | 0.00 | 0.00 | 0.00 | 59 | 1005.0 |
| 20260504173740 | 22 | 210 | 8.0 | 19.3 | 0.00 | 0.00 | 0.00 | 57 | 1004.8 |
| 20260504173233 | 22 | 233 | 6.4 | 19.3 | 0.00 | 0.00 | 0.00 | 58 | 1004.7 |
| 20260504172726 | 22 | 229 | 4.8 | 19.3 | 0.00 | 0.00 | 0.00 | 59 | 1004.7 |
| 20260504172219 | 22 | 233 | 4.8 | 17.7 | 0.00 | 0.00 | 0.00 | 58 | 1004.7 |
| 20260504171719 | 22 | 227 | 6.4 | 24.1 | 0.00 | 0.00 | 0.00 | 59 | 1004.7 |
| 20260504171221 | 22 | 258 | 4.8 | 24.1 | 0.00 | 0.00 | 0.00 | 59 | 1004.8 |
| 20260504170721 | 21 | 234 | 3.2 | 14.5 | 0.00 | 0.00 | 0.00 | 62 | 1004.7 |
| 20260504170220 | 21 | 256 | 3.2 | 9.7 | 0.00 | 0.00 | 0.00 | 62 | 1004.9 |
| 20260504151115 | 18 | 166 | 1.6 | 11.3 | 0.00 | 0.00 | 0.00 | 67 | 1005.7 |
| 20260504150610 | 18 | 245 | 1.6 | 12.9 | 0.00 | 0.00 | 0.00 | 67 | 1005.7 |
| 20260504150553 | 17 | 223 | 1.6 | 8.0 | 0.00 | 0.00 | 0.00 | 68 | 1005.7 |
| 20260504141004 | 15 | 261 | 3.2 | 9.7 | 0.00 | 0.00 | 0.00 | 71 | 1005.6 |
| 20260504140458 | 15 | 251 | 3.2 | 11.3 | 0.00 | 0.00 | 0.00 | 70 | 1005.7 |
| 20260504140216 | 16 | 254 | 4.8 | 11.3 | 0.00 | 0.00 | 0.00 | 70 | 1005.7 |
| 20260504130346 | 12 | 251 | 3.2 | 8.0 | 0.00 | 0.00 | 0.00 | 78 | 1006.1 |
| 20260504120234 | 11 | 260 | 3.2 | 8.0 | 0.00 | 0.00 | 0.00 | 78 | 1006.2 |
| 20260504110203 | 10 | 244 | 3.2 | 8.0 | 0.00 | 0.00 | 0.00 | 75 | 1006.2 |